Regional Weather Roundup
Issued by NWS Newport/Morehead, NC

Current Version | Previous Version | Graphics & Text | Print | Product List | Glossary Off
Versions: 1 2 3 4 5 6 7 8 9 10 11 12 13 14 15 16 17 18 19 20 21 22 23 24 25 26 27 28 29 30 31 32 33 34 35 36 37 38 39 40 41 42 43 44 45 46 47 48 49 50

566
ASUS42 KMHX 212124
RWRMHX
WEATHER ROUNDUP FOR EASTERN NORTH CAROLINA
NATIONAL WEATHER SERVICE NEWPORT/MOREHEAD CITY NC
500 PM EDT THU MAY 21 2015

NOTE: "FAIR" INDICATES FEW OR NO CLOUDS BELOW 12,000 FEET
WITH NO SIGNIFICANT WEATHER AND/OR OBSTRUCTIONS TO VISIBILITY

NCZ015>017-031-032-045>047-102-103-212200-
NORTH COAST

CITY           SKY/WX    TMP DP  RH WIND       PRES   REMARKS
EDENTON        LGT RAIN  69  67  93 NW10      29.77R
ELIZABETH CITY TSTM      74  69  85 S12       29.75R
KITTY HAWK     MOCLDY    75  69  81 SE12G18   29.73F
MANTEO         PTSUNNY   74  70  88 S12G17    29.76R

$$

NCZ045>047-081-094-103-104-212200-
CENTRAL COAST

CITY           SKY/WX    TMP DP  RH WIND       PRES   REMARKS
FRISCO         MOSUNNY   78  70  76 S12       29.75F
SWANQUARTER      N/A     77 N/A N/A S20       29.71R

$$

NCZ095-097-098-100-101-212200-
SOUTHERN COAST

CITY           SKY/WX    TMP DP  RH WIND       PRES   REMARKS
BEAUFORT       PTSUNNY   77  72  84 S14       29.74F
CEDAR ISLAND     N/A     79 N/A N/A S6G16     29.79R
JACKSONVILLE   PTSUNNY   78  71  79 SW10G22   29.76R THUNDER
PINEY ISLAND   MOCLDY   N/A N/A N/A S10G20    29.73F
WILMINGTON     TSTM      73  71  93 W16       29.78R VSB 1/4


$$

NCZ011>013-027>030-043-044-078>080-089-090>093-098-212200-
COASTAL PLAIN

CITY           SKY/WX    TMP DP  RH WIND       PRES   REMARKS
AHOSKIE        CLOUDY    61  59  92 NW6G17    29.81R
CLINTON        PTSUNNY   74  72  94 NW6G16    29.80R
ELIZABETHTOWN  MOSUNNY   77  72  83 NW10      29.78F
GOLDSBORO      CLOUDY    68  64  88 NW16      29.79R
GREENVILLE     CLOUDY    66  64  94 N14G21    29.81R
HAVELOCK       PTSUNNY   78  70  76 S9        29.74F
KENANSVILLE    CLOUDY    70  68  95 CALM      29.78F
KINSTON        LGT RAIN  72  68  88 NW7G18    29.77R
NEW BERN       PTSUNNY   79  70  74 S13G21    29.74R
RICHLANDS      CLOUDY    72  64  78 SW3       29.77R THUNDER
ROCKY MOUNT    CLOUDY    65  60  84 N14G23    29.81S
WASHINGTON     CLOUDY   N/A N/A N/A N9        29.77R
WHITEVILLE     CLOUDY    79  69  71 N9G18     29.78R

$$

AMZ130-135-150-152-154-156-158-170-250-252-270-ANZ085-086-088-633-658-670-212200-
MARINE OBSERVATIONS

STATION/POSITION TIME  TEMP    WIND        PRES    WAVE   SWELL
                       AIR SEA DIR/SP/G            HT/PER HT/PER
                 (UTC) (F)     (DEG/KT/KT) (MB)    (FT/S) (FT/S)
CHESAPEAKE LIGHT 2100   68     140/ 14/ 18 1008.1
64 E VA BEACH    2050   66 62  130/ 14/ 16 1008.1    3/ 5   2/ 8
DUCK             2100   70 68  140/ 17/ 21 1005.9
2 E DUCK         2011      68                N/A     3/ 4
OREGON INLET     2100   74 70  130/  7/ 15 1007.5
13E OREGON INLT  2100      66                N/A     4/ 5
HATTERAS CG      2100   77 73  160/  7/ 12 1007.0
DIAMOND BUOY     2050   77 77  170/ 16/ 19 1007.6    5/ 8   2/ 8
CAPE LOOKOUT     2100   77     180/ 15/ 17 1006.7
BEAUFORT LAB     2100   77 76  190/ 15/ 17 1006.1
27 SE WRIGHTSVLE 2100   75 79  240/ 17/ 23   N/A
5 SE WRIGHTSVLE  2008   77 77  210/ 16/ 21 1007.3
225 S CAPE HAT   2050   76 75  210/ 12/ 14 1012.6    3/ 5   2/ 8
41 SE CHARLESTON 2050   78 76  230/ 19/ 21 1008.7    4/ 5   2/ 8

$$



USA.gov is the U.S. government's official web portal to all federal, state and local government web resources and services.